Andrews AFB, MD

8:35 AM EST on December 11, 2017 (GMT -0500)
Andrews Air Force Base-Naf

Weather History for KADW - May, 2013

Change the Weather History Date:

Sunday, May 19, 2013

  Actual Average Record
Temperature  
Mean Temperature 67 °F -  
Max Temperature 75 °F 71 °F 91 °F (1997)
Min Temperature 59 °F 52 °F 42 °F (2002)
Cooling Degree Days 2    
Growing Degree Days 17 (Base 50)    
Moisture  
Dew Point 63 °F    
Average Humidity 95    
Maximum Humidity 100    
Minimum Humidity 73    
Precipitation  
Precipitation 0.01 in - - ()
Sea Level Pressure  
Sea Level Pressure 30.17 in    
Wind  
Wind Speed 4 mph (ENE)    
Max Wind Speed 9 mph    
Max Gust Speed -    
Visibility 5 miles    
Events Fog , Rain    
Averages and records for this station are not official NWS values.
T = Trace of Precipitation, MM = Missing Value Source: NWS Daily Summary

Daily Weather History Graph

Daily Weather History Graph

Search for Another Location

Airport or City:

Trip Planner

Search our weather history database for the weather conditions in past years. The results will help you decide how hot, cold, wet, or windy it might be!

Date:

Astronomy

May. 19, 2013 Rise Set
Actual Time 5:51 AM EDT 8:16 PM EDT
Civil Twilight 5:21 AM EDT 8:47 PM EDT
Nautical Twilight 4:43 AM EDT 9:24 PM EDT
Astronomical Twilight 4:02 AM EDT 10:06 PM EDT
Moon 2:22 PM EDT (5/19) 2:10 AM EDT (5/19)
Length of Visible Light 15h 25m
Length of Day
14h 25m
Waxing Gibbous, 65% of the Moon is Illuminated
May 19
Waxing Gibbous
May 25
Full
May 31
Last Quarter
Jun 8
New
Jun 16
First Quarter

Hourly Weather History & Observations

Time (EDT) Temp. Dew Point Humidity Pressure Visibility Wind Dir Wind Speed Gust Speed Precip Events Conditions
12:58 AM 59.2 °F 58.8 °F 99% 30.23 in 4.0 mi ENE 4.6 mph - N/A   Overcast
1:13 AM 59.0 °F 59.0 °F 100% 30.20 in 4.0 mi ENE 5.8 mph - N/A   Overcast
1:33 AM 59.0 °F 59.0 °F 100% 30.19 in 2.5 mi ENE 4.6 mph - N/A   Overcast
1:58 AM 59.2 °F 58.8 °F 99% 30.21 in 2.5 mi NE 4.6 mph - N/A   Overcast
2:58 AM 59.5 °F 59.2 °F 99% 30.20 in 2.5 mi NE 5.8 mph - N/A   Overcast
3:28 AM 59.0 °F 59.0 °F 100% 30.18 in 1.8 mi NE 4.6 mph - N/A   Overcast
3:38 AM 59.0 °F 59.0 °F 100% 30.18 in 1.5 mi NE 4.6 mph - N/A   Overcast
3:48 AM 59.0 °F 59.0 °F 100% 30.18 in 1.2 mi ENE 3.5 mph - N/A   Overcast
3:53 AM 59.0 °F 59.0 °F 100% 30.17 in 1.0 mi ENE 3.5 mph - N/A   Mist
3:58 AM 59.5 °F 59.2 °F 99% 30.19 in 1.0 mi East 4.6 mph - N/A   Mist
4:03 AM 59.0 °F 59.0 °F 100% 30.17 in 1.0 mi ENE 4.6 mph - N/A   Mist
4:08 AM 59.0 °F 59.0 °F 100% 30.17 in 0.8 mi ENE 5.8 mph - N/A   Mist
4:23 AM 59.0 °F 59.0 °F 100% 30.16 in 0.8 mi ENE 4.6 mph - N/A   Mist
4:28 AM 59.0 °F 59.0 °F 100% 30.17 in 0.8 mi NE 3.5 mph - N/A   Mist
4:43 AM 59.0 °F 59.0 °F 100% 30.16 in 0.5 mi NE 3.5 mph - N/A Fog Fog
4:58 AM 59.9 °F 59.5 °F 99% 30.18 in 0.5 mi ENE 3.5 mph - N/A Fog Fog
5:28 AM 60.8 °F 59.0 °F 94% 30.16 in 0.5 mi NE 4.6 mph - N/A Fog Fog
5:33 AM 60.8 °F 59.0 °F 94% 30.16 in 0.5 mi NE 6.9 mph - N/A Fog Fog
5:53 AM 60.8 °F 59.0 °F 94% 30.16 in 0.2 mi NE 4.6 mph - N/A Fog Fog
5:58 AM 60.3 °F 59.9 °F 99% 30.18 in 0.2 mi ENE 2.3 mph - N/A Fog Fog
6:58 AM 60.8 °F 60.6 °F 99% 30.19 in 0.2 mi Variable 1.2 mph - N/A Fog Fog
7:58 AM 61.7 °F 61.3 °F 99% 30.20 in 0.2 mi North 2.3 mph - N/A Fog Fog
8:18 AM 62.6 °F 60.8 °F 94% 30.19 in 0.5 mi NNE 3.5 mph - N/A Fog Fog
8:23 AM 62.6 °F 60.8 °F 94% 30.20 in 0.5 mi NNE 4.6 mph - N/A Fog Fog
8:38 AM 62.6 °F 62.6 °F 100% 30.20 in 0.5 mi NNE 4.6 mph - N/A Fog Fog
8:58 AM 62.6 °F 62.6 °F 100% 30.22 in 0.5 mi NE 4.6 mph - N/A Fog Fog
9:03 AM 62.6 °F 62.6 °F 100% 30.20 in 0.8 mi ENE 3.5 mph - N/A   Overcast
9:08 AM 62.6 °F 62.6 °F 100% 30.20 in 0.8 mi ENE 4.6 mph - N/A   Overcast
9:13 AM 62.6 °F 62.6 °F 100% 30.21 in 0.8 mi NE 3.5 mph - N/A   Overcast
9:18 AM 62.6 °F 62.6 °F 100% 30.21 in 1.0 mi NE 4.6 mph - N/A   Overcast
9:23 AM 62.6 °F 62.6 °F 100% 30.21 in 1.2 mi ENE 4.6 mph - N/A   Overcast
9:28 AM 62.6 °F 62.6 °F 100% 30.21 in 1.5 mi ENE 4.6 mph - N/A   Overcast
9:33 AM 62.6 °F 62.6 °F 100% 30.20 in 2.0 mi ENE 3.5 mph - N/A   Overcast
9:38 AM 62.6 °F 62.6 °F 100% 30.20 in 3.0 mi East 2.3 mph - N/A   Overcast
9:58 AM 63.1 °F 63.1 °F 100% 30.22 in 5.0 mi ENE 3.5 mph - N/A   Overcast
10:12 AM 62.6 °F 62.6 °F 100% 30.20 in 3.0 mi ENE 5.8 mph - N/A   Light Drizzle
10:17 AM 62.6 °F 62.6 °F 100% 30.20 in 2.5 mi ENE 4.6 mph - N/A   Light Drizzle
10:39 AM 64.4 °F 64.4 °F 100% 30.20 in 3.0 mi ENE 3.5 mph - N/A   Overcast
10:58 AM 63.7 °F 63.7 °F 100% 30.22 in 6.0 mi ENE 5.8 mph - 0.01 in   Overcast
11:03 AM 64.4 °F 64.4 °F 100% 30.20 in 6.0 mi ENE 4.6 mph - N/A   Overcast
11:58 AM 64.6 °F 64.6 °F 100% 30.21 in 8.0 mi East 5.8 mph - N/A   Overcast
12:03 PM 64.4 °F 64.4 °F 100% 30.19 in 9.0 mi East 4.6 mph - N/A   Overcast
12:38 PM 66.2 °F 66.2 °F 100% 30.19 in 10.0 mi ESE 4.6 mph - N/A   Overcast
12:58 PM 66.4 °F 66.4 °F 100% 30.20 in 10.0 mi East 4.6 mph - N/A   Overcast
1:03 PM 66.2 °F 66.2 °F 100% 30.18 in 10.0 mi ESE 3.5 mph - N/A   Overcast
1:28 PM 68.0 °F 68.0 °F 100% 30.17 in 10.0 mi ESE 3.5 mph - N/A   Overcast
1:38 PM 68.0 °F 68.0 °F 100% 30.17 in 10.0 mi ESE 4.6 mph - N/A   Overcast
1:58 PM 68.5 °F 67.3 °F 96% 30.18 in 10.0 mi SE 4.6 mph - N/A   Overcast
2:13 PM 68.0 °F 66.2 °F 94% 30.16 in 10.0 mi SSE 4.6 mph - N/A   Overcast
2:18 PM 68.0 °F 66.2 °F 94% 30.15 in 10.0 mi South 2.3 mph - N/A   Overcast
2:23 PM 69.8 °F 66.2 °F 88% 30.15 in 10.0 mi ESE 3.5 mph - N/A   Overcast
2:43 PM 69.8 °F 66.2 °F 88% 30.14 in 10.0 mi East 3.5 mph - N/A   Mostly Cloudy
2:48 PM 69.8 °F 66.2 °F 88% 30.14 in 10.0 mi Variable 2.3 mph - N/A   Mostly Cloudy
2:58 PM 71.6 °F 66.2 °F 83% 30.16 in 10.0 mi Variable 3.5 mph - N/A   Mostly Cloudy
3:18 PM 71.6 °F 64.4 °F 78% 30.13 in 10.0 mi Variable 1.2 mph - N/A   Mostly Cloudy
3:58 PM 73.9 °F 65.1 °F 74% 30.14 in 10.0 mi Variable 3.5 mph - N/A   Mostly Cloudy
4:23 PM 75.2 °F 66.2 °F 73% 30.11 in 10.0 mi NE 5.8 mph - N/A   Mostly Cloudy
4:58 PM 73.0 °F 66.2 °F 79% 30.13 in 10.0 mi ENE 4.6 mph - N/A   Overcast
5:03 PM 73.4 °F 66.2 °F 78% 30.11 in 10.0 mi NE 4.6 mph - N/A   Overcast
5:08 PM 73.4 °F 66.2 °F 78% 30.11 in 10.0 mi NNE 4.6 mph - N/A   Overcast
5:43 PM 71.6 °F 66.2 °F 83% 30.11 in 10.0 mi East 9.2 mph - N/A   Overcast
5:58 PM 70.7 °F 66.7 °F 87% 30.13 in 10.0 mi ESE 9.2 mph - N/A   Mostly Cloudy
6:58 PM 70.0 °F 66.7 °F 89% 30.12 in 10.0 mi ESE 5.8 mph - N/A   Overcast
7:58 PM 68.9 °F 66.4 °F 92% 30.13 in 10.0 mi East 5.8 mph - N/A   Overcast
8:58 PM 67.6 °F 65.8 °F 94% 30.13 in 10.0 mi ENE 3.5 mph - N/A   Overcast
9:32 PM 68.0 °F 66.2 °F 94% 30.13 in 10.0 mi East 6.9 mph - N/A Rain Light Rain
9:41 PM 68.0 °F 66.2 °F 94% 30.13 in 10.0 mi ENE 5.8 mph - N/A   Overcast
9:58 PM 67.5 °F 65.1 °F 92% 30.16 in 10.0 mi ENE 4.6 mph - 0.00 in   Overcast
10:23 PM 68.0 °F 64.4 °F 88% 30.15 in 10.0 mi ENE 5.8 mph - N/A   Overcast
10:33 PM 68.0 °F 64.4 °F 88% 30.14 in 10.0 mi East 4.6 mph - N/A   Overcast
10:38 PM 68.0 °F 64.4 °F 88% 30.15 in 10.0 mi ENE 4.6 mph - N/A   Overcast
10:58 PM 67.1 °F 65.3 °F 94% 30.16 in 10.0 mi East 4.6 mph - N/A   Overcast
11:58 PM 66.6 °F 66.4 °F 99% 30.15 in 10.0 mi ESE 4.6 mph - N/A   Mostly Cloudy